Terug naar catalogus

COSMOS 1388

ActiefNavigatieLEO
NORAD 13375·PAYLOAD·🇷🇺 Russia

Gelanceerd Jul 21, 1982 vanaf Plesetsk Cosmodrome

Loading…

Volgende Passages (komende 24 uur)

TLE

VersSource: Space-Track

Epoch: Sep 14, 2026, 11:44 UTC

1 13375U 82073A   26257.48932597 -.00000019  00000-0 -15465-4 0  9995
2 13375  74.0113 257.9289 0051859  23.8495 132.8571 12.57510269 26786

Volg COSMOS 1388 in realtime met AllMySat

Download on the App Store